Regional Weather Roundup
Issued by NWS

Home | Current Version | Previous Version | Text Only | Print | Product List | Glossary On
Versions: 1 2 3 4 5 6 7 8 9 10 11 12 13 14 15 16 17 18 19 20 21 22 23 24 25 26 27 28 29 30 31 32 33 34 35 36 37 38 39 40 41 42 43 44 45 46 47 48 49 50
000
ASUS44 KLIX 270113
RWRLA
LOUISIANA WEATHER ROUNDUP
NATIONAL WEATHER SERVICE NEW ORLEANS LA
700 PM CST SUN FEB 26 2017

NOTE: "FAIR" INDICATES FEW OR NO CLOUDS BELOW 12,000 FEET WITH NO
      SIGNIFICANT WEATHER AND/OR OBSTRUCTIONS TO VISIBILITY.
      SKY/WX - SKY CONDITION AND SIGNIFICANT WEATHER.
      TMP - AIR TEMPERATURE.    DP   - DEWPOINT TEMPERATURE.
      RH  - RELATIVE HUMIDITY.  PRES - PRESSURE.
      HX  - HEAT INDEX.         WCI  - WIND CHILL INDEX.

*  THESE STATIONS ARE NOT NWS OR FAA STATIONS AND ARE NOT UNDER
   NWS QUALITY CONTROL.

LAZ040-048-061>063-065-066-069-270200-
SOUTHEAST LOUISIANA

CITY           SKY/WX    TMP DP  RH WIND       PRES   REMARKS
N.O. AUDUBON   NOT AVBL
N.O. INTL ARPT MOCLDY    64  54  69 E14       30.09S
N.O. LAKEFRONT CLEAR     64  55  72 SE12      30.10S
N.O. DOWNTOWN*   N/A     65  54  67 VRB5      30.11R
RESERVE*       MOCLDY    66  54  64 SE9       30.09S
SLIDELL        PTCLDY    61  51  70 E5        30.10S
BATON ROUGE    PTCLDY    62  51  67 E12       30.08R
BOOTHVILLE     CLEAR     62  58  86 E6        30.11R
BELLE CHASSE   CLEAR     63  56  78 SE8       30.10R
BOGALUSA*      FAIR      61  47  60 SE3       30.13R
GALLIANO*      CLEAR     65  55  71 E8        30.08S
NEW ROADS*     FAIR      62  50  65 E10       30.07S
GONZALES*      CLOUDY    66  54  65 E6        30.07S
HAMMOND*       CLOUDY    63  48  59 E5        30.10S
HOUMA*         MOCLDY    64  57  80 E9        30.07S
PORT FOURCHON* NOT AVBL

$$

LAZ041-044-053-054-270200-
SOUTHWEST LOUISIANA

CITY           SKY/WX    TMP DP  RH WIND       PRES   REMARKS
LAKE CHARLES   CLOUDY    66  59  78 SE15      30.00S
LAFAYETTE      MOCLDY    70  56  61 VRB6      30.04S
PATTERSON      CLOUDY    66  58  75 E8        30.07R
SALT POINT       N/A     66  58  75 E7        30.04S
NEW IBERIA     CLOUDY    67  55  65 SE14      30.05R
CHENAULT AIRPK CLOUDY    64  59  82 SE17      30.01

$$

LAZ027-028-270200-
CENTRAL LOUISIANA

CITY           SKY/WX    TMP DP  RH WIND       PRES   REMARKS
FORT POLK      CLOUDY    66  56  71 SE10      29.98S
ALEXANDRIA INT CLOUDY    65  55  70 SE12      29.99F
ALEXANDRIA     CLEAR     59  49  69 CALM      30.02S

$$

LAZ001-002-270200-
NORTHWEST LOUISIANA

CITY           SKY/WX    TMP DP  RH WIND       PRES   REMARKS
SHREVEPORT     MOCLDY    65  54  67 S14       29.93F
BARKSDALE AFB  PTCLDY    62  53  72 S13       29.93F
DTN SHREVEPORT MOCLDY    66  52  60 S10       29.93S

$$

LAZ014-016-270200-
NORTHEAST LOUISIANA

CITY           SKY/WX    TMP DP  RH WIND       PRES   REMARKS
MONROE         MOCLDY    64  38  38 SE7       30.01F
TALLULAH       PTCLDY    62  30  29 S9        30.05R

$$




USA.gov is the U.S. government's official web portal to all federal, state and local government web resources and services.